International Skating Union - Official Site

Essent ISU World Cup Chelyabinsk
November 18-20, 2011

Draw | Lap Times | Index | World Cup

Referee: Erik  ØSMUNDSET  (NOR)
Starter: Jannie  SMEGEN  (NED)
StartTime: EndTime: Air Temp: Ice Temp: Humidity:
12:00 13:10 11.5℃ -5.4℃ 32%
Result 5000m Men Division B
Rankings as of Nov 20 2011 6:25PM
Rank: No.: Name: Nation: Time: Behind: Points:
1 104 Bart  SWINGS BEL BEL 6:25.54200m - 19.34 - (19.3)
600m - 48.93 - (29.5)
1000m - 1:18.94 - (30.0)
1400m - 1:49.04 - (30.1)
1800m - 2:19.23 - (30.1)
2200m - 2:49.71 - (30.4)
2600m - 3:20.07 - (30.3)
3000m - 3:50.21 - (30.1)
3400m - 4:20.72 - (30.5)
3800m - 4:51.22 - (30.5)
4200m - 5:22.30 - (31.0)
4600m - 5:53.84 - (31.5)
5000m - 6:25.54 - (31.7)
25
2 129 Alexej  BAUMGÄRTNER GER GER 6:30.04200m - 20.03 - (20.0)
600m - 50.26 - (30.2)
1000m - 1:20.67 - (30.4)
1400m - 1:50.92 - (30.2)
1800m - 2:21.31 - (30.3)
2200m - 2:51.95 - (30.6)
2600m - 3:22.71 - (30.7)
3000m - 3:53.46 - (30.7)
3400m - 4:24.60 - (31.1)
3800m - 4:55.85 - (31.2)
4200m - 5:27.32 - (31.4)
4600m - 5:58.78 - (31.4)
5000m - 6:30.04 - (31.2)
4.50 19
3 106 Jordan  BELCHOS CAN CAN 6:31.26200m - 18.98 - (18.9)
600m - 48.25 - (29.2)
1000m - 1:18.06 - (29.8)
1400m - 1:48.19 - (30.1)
1800m - 2:18.56 - (30.3)
2200m - 2:49.41 - (30.8)
2600m - 3:20.36 - (30.9)
3000m - 3:51.59 - (31.2)
3400m - 4:23.03 - (31.4)
3800m - 4:54.90 - (31.8)
4200m - 5:27.07 - (32.1)
4600m - 5:59.38 - (32.3)
5000m - 6:31.26 - (31.8)
5.72 15
4 157 Hyung-Joon  JOO KOR KOR 6:31.35200m - 19.63 - (19.6)
600m - 49.34 - (29.7)
1000m - 1:20.00 - (30.6)
1400m - 1:50.60 - (30.5)
1800m - 2:21.57 - (30.9)
2200m - 2:52.33 - (30.7)
2600m - 3:23.61 - (31.2)
3000m - 3:54.87 - (31.2)
3400m - 4:26.31 - (31.4)
3800m - 4:57.64 - (31.3)
4200m - 5:28.97 - (31.3)
4600m - 6:00.11 - (31.1)
5000m - 6:31.35 - (31.2)
5.81 11
5 127 Ewen  FERNANDEZ FRA FRA 6:32.16200m - 18.79 - (18.7)
600m - 48.17 - (29.3)
1000m - 1:18.57 - (30.3)
1400m - 1:49.77 - (31.2)
1800m - 2:20.79 - (31.0)
2200m - 2:51.99 - (31.2)
2600m - 3:23.30 - (31.3)
3000m - 3:54.71 - (31.4)
3400m - 4:26.01 - (31.2)
3800m - 4:57.45 - (31.4)
4200m - 5:28.87 - (31.4)
4600m - 6:00.63 - (31.7)
5000m - 6:32.16 - (31.5)
6.62 8
6 217 Brian  HANSEN USA USA 6:32.53200m - 20.01 - (20.0)
600m - 50.16 - (30.1)
1000m - 1:21.25 - (31.0)
1400m - 1:52.48 - (31.2)
1800m - 2:23.73 - (31.2)
2200m - 2:54.75 - (31.0)
2600m - 3:25.57 - (30.8)
3000m - 3:56.33 - (30.7)
3400m - 4:26.99 - (30.6)
3800m - 4:57.95 - (30.9)
4200m - 5:29.07 - (31.1)
4600m - 6:00.64 - (31.5)
5000m - 6:32.53 - (31.9)
6.99 6
7 194 Jan  SZYMANSKI POL POL 6:34.78200m - 18.97 - (18.9)
600m - 48.44 - (29.4)
1000m - 1:18.83 - (30.3)
1400m - 1:49.75 - (30.9)
1800m - 2:20.71 - (30.9)
2200m - 2:51.87 - (31.1)
2600m - 3:23.16 - (31.2)
3000m - 3:54.68 - (31.5)
3400m - 4:26.05 - (31.3)
3800m - 4:57.54 - (31.4)
4200m - 5:29.53 - (31.9)
4600m - 6:01.57 - (32.0)
5000m - 6:34.78 - (33.2)
9.24 4
8 134 Robert  LEHMANN GER GER 6:38.69200m - 19.21 - (19.2)
600m - 49.82 - (30.6)
1000m - 1:20.45 - (30.6)
1400m - 1:51.02 - (30.5)
1800m - 2:22.07 - (31.0)
2200m - 2:53.02 - (30.9)
2600m - 3:24.66 - (31.6)
3000m - 3:56.53 - (31.8)
3400m - 4:28.87 - (32.3)
3800m - 5:01.53 - (32.6)
4200m - 5:34.28 - (32.7)
4600m - 6:06.44 - (32.1)
5000m - 6:38.69 - (32.2)
13.15 2
9 145 Teppei  MORI JPN JPN 6:39.54200m - 19.69 - (19.6)
600m - 50.34 - (30.6)
1000m - 1:21.74 - (31.3)
1400m - 1:53.34 - (31.6)
1800m - 2:25.27 - (31.9)
2200m - 2:57.16 - (31.8)
2600m - 3:28.75 - (31.5)
3000m - 4:00.43 - (31.6)
3400m - 4:32.38 - (31.9)
3800m - 5:04.18 - (31.8)
4200m - 5:36.08 - (31.8)
4600m - 6:07.92 - (31.8)
5000m - 6:39.54 - (31.6)
14.00 1
10 192 Roland  CIESLAK POL POL 6:40.17200m - 19.50 - (19.5)
600m - 49.47 - (29.9)
1000m - 1:19.62 - (30.1)
1400m - 1:50.15 - (30.5)
1800m - 2:21.06 - (30.9)
2200m - 2:52.28 - (31.2)
2600m - 3:23.99 - (31.7)
3000m - 3:56.36 - (32.3)
3400m - 4:29.14 - (32.7)
3800m - 5:02.33 - (33.1)
4200m - 5:35.31 - (32.9)
4600m - 6:08.19 - (32.8)
5000m - 6:40.17 - (31.9)
14.63 0
11 140 Luca  STEFANI ITA ITA 6:40.34200m - 19.21 - (19.2)
600m - 50.05 - (30.8)
1000m - 1:21.43 - (31.3)
1400m - 1:52.94 - (31.5)
1800m - 2:24.60 - (31.6)
2200m - 2:56.30 - (31.7)
2600m - 3:28.13 - (31.8)
3000m - 3:59.93 - (31.8)
3400m - 4:31.30 - (31.3)
3800m - 5:03.05 - (31.7)
4200m - 5:35.21 - (32.1)
4600m - 6:07.57 - (32.3)
5000m - 6:40.34 - (32.7)
14.80 0
12 199 Andrey  BURLYAYEV RUS RUS 6:41.27200m - 19.32 - (19.3)
600m - 50.24 - (30.9)
1000m - 1:21.89 - (31.6)
1400m - 1:33.54 - (11.6)
1800m - 2:25.12 - (51.5)
2200m - 2:56.90 - (31.7)
2600m - 3:28.80 - (31.9)
3000m - 4:00.76 - (31.9)
3400m - 4:32.64 - (31.8)
3800m - 5:04.56 - (31.9)
4200m - 5:36.61 - (32.0)
4600m - 6:08.84 - (32.2)
5000m - 6:41.27 - (32.4)
15.73 0
13 201 Mikhail  KOCHNEV RUS RUS 6:41.73200m - 19.86 - (19.8)
600m - 50.27 - (30.4)
1000m - 1:21.38 - (31.1)
1400m - 1:52.61 - (31.2)
1800m - 2:23.88 - (31.2)
2200m - 2:55.45 - (31.5)
2600m - 3:27.18 - (31.7)
3000m - 3:59.09 - (31.9)
3400m - 4:31.21 - (32.1)
3800m - 5:03.65 - (32.4)
4200m - 5:36.21 - (32.5)
4600m - 6:08.88 - (32.6)
5000m - 6:41.73 - (32.8)
16.19 0
14 105 Vitaly  MIKHAILOV BLR BLR 6:41.92200m - 19.54 - (19.5)
600m - 50.89 - (31.3)
1000m - 1:22.35 - (31.4)
1400m - 1:54.18 - (31.8)
1800m - 2:25.59 - (31.4)
2200m - 2:57.05 - (31.4)
2600m - 3:28.43 - (31.3)
3000m - 3:59.96 - (31.5)
3400m - 4:31.73 - (31.7)
3800m - 5:04.46 - (32.7)
4200m - 5:36.99 - (32.5)
4600m - 6:09.36 - (32.3)
5000m - 6:41.92 - (32.5)
16.38 0
15 210 Aleksey  SUVOROV RUS RUS 6:42.42200m - 18.83 - (18.8)
600m - 49.22 - (30.3)
1000m - 1:20.51 - (31.2)
1400m - 1:52.07 - (31.5)
1800m - 2:23.07 - (31.0)
2200m - 2:55.03 - (31.9)
2600m - 3:26.46 - (31.4)
3000m - 3:58.50 - (32.0)
3400m - 4:30.27 - (31.7)
3800m - 5:02.59 - (32.3)
4200m - 5:35.46 - (32.8)
4600m - 6:08.54 - (33.0)
5000m - 6:42.42 - (33.8)
16.88 0
16 213 Martin  HÄNGGI SUI SUI 6:45.02200m - 19.69 - (19.6)
600m - 51.63 - (31.9)
1000m - 1:24.16 - (32.5)
1400m - 1:56.32 - (32.1)
1800m - 2:28.31 - (31.9)
2200m - 3:00.57 - (32.2)
2600m - 3:32.53 - (31.9)
3000m - 4:04.57 - (32.0)
3400m - 4:37.00 - (32.4)
3800m - 5:09.63 - (32.6)
4200m - 5:41.43 - (31.8)
4600m - 6:13.33 - (31.8)
5000m - 6:45.02 - (31.6)
19.48 0
17 220 Trevor  MARSICANO USA USA 6:46.29200m - 20.10 - (20.1)
600m - 52.03 - (31.9)
1000m - 1:24.03 - (32.0)
1400m - 1:56.00 - (31.9)
1800m - 2:27.94 - (31.9)
2200m - 2:59.80 - (31.8)
2600m - 3:31.65 - (31.8)
3000m - 4:03.86 - (32.2)
3400m - 4:36.06 - (32.1)
3800m - 5:08.26 - (32.1)
4200m - 5:40.67 - (32.4)
4600m - 6:13.51 - (32.8)
5000m - 6:46.29 - (32.7)
20.75 0
18 103 Ferre  SPRUYT BEL BEL 6:47.65200m - 19.20 - (19.1)
600m - 49.57 - (30.3)
1000m - 1:20.60 - (31.0)
1400m - 1:52.68 - (32.0)
1800m - 2:24.28 - (31.6)
2200m - 2:56.57 - (32.2)
2600m - 3:28.54 - (31.9)
3000m - 4:01.07 - (32.5)
3400m - 4:33.66 - (32.5)
3800m - 5:06.81 - (33.1)
4200m - 5:40.28 - (33.4)
4600m - 6:14.10 - (33.8)
5000m - 6:47.65 - (33.5)
22.11 0
19 117 Bailin  LI CHN CHN 6:48.25200m - 19.34 - (19.3)
600m - 49.05 - (29.7)
1000m - 1:19.48 - (30.4)
1400m - 1:51.68 - (32.2)
1800m - 2:24.20 - (32.5)
2200m - 2:56.95 - (32.7)
2600m - 3:29.89 - (32.9)
3000m - 4:02.64 - (32.7)
3400m - 4:35.56 - (32.9)
3800m - 5:09.01 - (33.4)
4200m - 5:42.61 - (33.6)
4600m - 6:15.80 - (33.1)
5000m - 6:48.25 - (32.4)
22.71 0
20 120 Zdenek  HASELBERGER CZE CZE 6:53.42200m - 20.11 - (20.1)
600m - 52.52 - (32.4)
1000m - 1:24.45 - (31.9)
1400m - 1:56.65 - (32.2)
1800m - 2:28.86 - (32.2)
2200m - 3:01.02 - (32.1)
2600m - 3:33.89 - (32.8)
3000m - 4:06.98 - (33.0)
3400m - 4:40.07 - (33.0)
3800m - 5:13.29 - (33.2)
4200m - 5:47.14 - (33.8)
4600m - 6:20.35 - (33.2)
5000m - 6:53.42 - (33.0)
27.88 0
21 151 Maxim  BAKLASHKIN KAZ KAZ 6:54.13200m - 19.34 - (19.3)
600m - 49.49 - (30.1)
1000m - 1:20.23 - (30.7)
1400m - 1:51.19 - (30.9)
1800m - 2:22.78 - (31.5)
2200m - 2:54.38 - (31.5)
2600m - 3:26.65 - (32.2)
3000m - 3:59.57 - (32.9)
3400m - 4:33.28 - (33.7)
3800m - 5:07.93 - (34.6)
4200m - 5:43.33 - (35.3)
4600m - 6:18.93 - (35.6)
5000m - 6:54.13 - (35.2)
28.59 0
22 149 Norimasa  ZAIKE JPN JPN DNF200m - 19.16 - (19.1)
600m - 49.85 - (30.6)
1000m - 1:20.45 - (30.6)
1400m - 1:51.20 - (30.7)
1800m - 2:22.18 - (30.9)
2200m - 2:53.45 - (31.2)
2600m - 3:24.65 - (31.2)
3000m - 3:55.90 - (31.2)
0